Regional Weather Roundup
Issued by NWS

Home | Current Version | Previous Version | Graphics & Text | Print | Product List | Glossary On
Versions: 1 2 3 4 5 6 7 8 9 10 11 12 13 14 15 16 17 18 19 20 21 22 23 24 25 26 27 28 29 30 31 32 33 34 35 36 37 38 39 40 41 42 43 44 45 46 47 48 49 50
000
ASUS43 KOAX 010410
RWRNE

WEATHER ROUNDUP FOR NEBRASKA
NATIONAL WEATHER SERVICE OMAHA NE
1100 PM CDT SAT APR 30 2016

NOTES: SATELLITE DATA IS BEING USED TO AUGMENT CLOUD COVER ABOVE
       12000 FEET.
       "FAIR" INDICATES FEW OR NO CLOUDS BELOW 12,000 FEET WITH NO
       SIGNIFICANT WEATHER AND/OR OBSTRUCTIONS TO VISIBILITY.

  * THESE STATIONS DO NOT REPORT WEATHER SUCH AS RAIN...SNOW OR FOG.

NEZ001>004-019>022-054>056-010500-
NEBRASKA PANHANDLE

CITY           SKY/WX    TMP DP  RH WIND       PRES   REMARKS
SCOTTSBLUFF    LGT RAIN  37  36  96 N12       30.17R WCI  29
ALLIANCE       MIX PCPN  34  33  96 N17       30.12R WCI  23
CHADRON        LGT RAIN  41  37  86 NE7       30.18R
KIMBALL        LGT SNOW  33  33  99 N16       30.13S WCI  23
SIDNEY         FLURRIES  34  32  92 N24       30.10R WCI  21
$$

NEZ057>060-069>072-079>082-010500-
SOUTHWEST NEBRASKA

CITY           SKY/WX    TMP DP  RH WIND       PRES   REMARKS
NORTH PLATTE   LGT RAIN  35  33  92 N18G25    29.99R WCI  24
IMPERIAL       LGT RAIN  35  33  92 N17       30.03R WCI  25
LEXINGTON      DRIZZLE   40  37  91 NW13      29.93R WCI  32
MCCOOK         CLOUDY    38  34  85 NW14      29.98R WCI  30
OGALLALA       RAIN      35  32  90 N18G24    30.05R WCI  24
$$

NEZ005>010-023>029-035>040-094-010500-
NORTH CENTRAL NEBRASKA

CITY           SKY/WX    TMP DP  RH WIND       PRES   REMARKS
VALENTINE      LGT RAIN  39  36  89 NE20G37   30.11R WCI  29
AINSWORTH      RAIN      38  37  94 NE24G31   30.06R WCI  27
BROKEN BOW     LGT RAIN  41  39  93 N15G24    29.95R
O`NEILL        DRIZZLE   42  40  94 NE20      30.02R
ORD            LGT RAIN  42  39  89 N17       29.94R
THEDFORD       CLOUDY    35  34  96 N20       30.04R WCI  24
$$

NEZ041-046>049-061>064-073>077-083>087-010500-
SOUTH CENTRAL NEBRASKA

CITY           SKY/WX    TMP DP  RH WIND       PRES   REMARKS
GRAND ISLAND   LGT RAIN  45  44  97 NE13      29.89R
AURORA         RAIN      47  47  99 N10       29.88R
HASTINGS       LGT RAIN  45  43  93 NW9       29.87R
HEBRON         CLOUDY    48  46  90 W3        29.87R
HOLDREGE       LGT RAIN  40  38  93 NW8       29.90S WCI  35
KEARNEY *      CLOUDY    43  39  87 NW10      29.90R
YORK           LGT RAIN  46  46 100 NE10      29.87R
$$

NEZ011>018-030>034-042>045-010500-
NORTHEAST NEBRASKA

CITY           SKY/WX    TMP DP  RH WIND       PRES   REMARKS
NORFOLK        LGT RAIN  43  41  93 NE17      29.93R FOG
ALBION         LGT RAIN  43  41  93 NE15G23   29.93R
BLAIR          DRIZZLE   47  46  95 NE15      29.87R
COLUMBUS *     CLOUDY    45  37  76 NE17G24   29.90R
FREMONT        CLOUDY    46  46 100 NE13      29.89R FOG
TEKAMAH        CLOUDY    47  45  93 NE12      29.91R
WAYNE          LGT RAIN  43  42  95 NE21      29.97R
$$

NEZ050>053-065>068-078-088>093-010500-
SOUTHEAST NEBRASKA

CITY           SKY/WX    TMP DP  RH WIND       PRES   REMARKS
LINCOLN        CLOUDY    51  49  92 E9        29.86R
OMAHA EPPLEY   LGT RAIN  49  47  93 E14       29.87R
BEATRICE       CLOUDY    50  47  90 W9        29.86R
FALLS CITY     CLOUDY    55  50  83 W3        29.85R
NEBRASKA CITY  CLOUDY    52  52 100 CALM      29.85R
PLATTSMOUTH    CLOUDY    50  50 100 CALM      29.86R
$$

NEZ044-045-051>053-067-010500-
OMAHA AREA

CITY           SKY/WX    TMP DP  RH WIND       PRES   REMARKS
OMAHA EPPLEY   LGT RAIN  49  47  93 E14       29.87R
BLAIR          DRIZZLE   47  46  95 NE15      29.87R
FREMONT        CLOUDY    46  46 100 NE13      29.89R FOG
MILLARD        DRIZZLE   49  48  95 E7        29.87R
OFFUTT AFB     CLOUDY    49  49 100 NE7       29.85R FOG
PLATTSMOUTH    CLOUDY    50  50 100 CALM      29.86R
WAHOO          DRIZZLE   49  47  95 NE10      29.87R
$$




USA.gov is the U.S. government's official web portal to all federal, state and local government web resources and services.